owner,sensor,date,latitude,longitude,vertical_datum,sea_water_temperature,qcFlag 
WAVCIS,ioos:station:WAVCIS:CSI15:1,2011-02-01T00:00:00Z,28.8332,-90.8320,10.0,-3.708,11144222 
WAVCIS,ioos:station:WAVCIS:CSI15:1,2011-02-01T01:00:00Z,28.8332,-90.8320,10.0,-3.723,11144222 
WAVCIS,ioos:station:WAVCIS:CSI15:1,2011-02-01T02:00:00Z,28.8332,-90.8320,10.0,-3.736,11144222 
WAVCIS,ioos:station:WAVCIS:CSI15:1,2011-02-01T03:00:00Z,28.8332,-90.8320,10.0,-3.738,11144222 
WAVCIS,ioos:station:WAVCIS:CSI15:1,2011-02-01T04:00:00Z,28.8332,-90.8320,10.0,-3.732,11144222 
WAVCIS,ioos:station:WAVCIS:CSI15:1,2011-02-01T05:00:00Z,28.8332,-90.8320,10.0,-3.726,11144222 
WAVCIS,ioos:station:WAVCIS:CSI15:1,2011-02-01T06:00:00Z,28.8332,-90.8320,10.0,-3.718,11144222 
WAVCIS,ioos:station:WAVCIS:CSI15:1,2011-02-01T07:00:00Z,28.8332,-90.8320,10.0,-3.728,11144222 
WAVCIS,ioos:station:WAVCIS:CSI15:1,2011-02-01T08:00:00Z,28.8332,-90.8320,10.0,-3.72,11144222 
WAVCIS,ioos:station:WAVCIS:CSI15:1,2011-02-01T09:00:00Z,28.8332,-90.8320,10.0,-3.734,11144222 
WAVCIS,ioos:station:WAVCIS:CSI15:1,2011-02-01T10:00:00Z,28.8332,-90.8320,10.0,-3.709,11144222 
WAVCIS,ioos:station:WAVCIS:CSI15:1,2011-02-01T11:00:00Z,28.8332,-90.8320,10.0,-3.726,11144222 
WAVCIS,ioos:station:WAVCIS:CSI15:1,2011-02-01T12:00:00Z,28.8332,-90.8320,10.0,-3.727,11144222 
WAVCIS,ioos:station:WAVCIS:CSI15:1,2011-02-01T13:00:00Z,28.8332,-90.8320,10.0,-3.744,11144222 
WAVCIS,ioos:station:WAVCIS:CSI15:1,2011-02-01T14:00:00Z,28.8332,-90.8320,10.0,-3.685,11144222 
WAVCIS,ioos:station:WAVCIS:CSI15:1,2011-02-01T15:00:00Z,28.8332,-90.8320,10.0,-3.695,11144222 
WAVCIS,ioos:station:WAVCIS:CSI15:1,2011-02-01T16:00:00Z,28.8332,-90.8320,10.0,-3.691,11144222 
WAVCIS,ioos:station:WAVCIS:CSI15:1,2011-02-01T17:00:00Z,28.8332,-90.8320,10.0,-3.669,11144222 
WAVCIS,ioos:station:WAVCIS:CSI15:1,2011-02-01T18:00:00Z,28.8332,-90.8320,10.0,-3.646,11144222 
WAVCIS,ioos:station:WAVCIS:CSI15:1,2011-02-01T19:00:00Z,28.8332,-90.8320,10.0,-3.631,11144222 
WAVCIS,ioos:station:WAVCIS:CSI15:1,2011-02-01T20:00:00Z,28.8332,-90.8320,10.0,-3.608,11144222 
WAVCIS,ioos:station:WAVCIS:CSI15:1,2011-02-01T21:00:00Z,28.8332,-90.8320,10.0,-3.6,11144222 
WAVCIS,ioos:station:WAVCIS:CSI15:1,2011-02-01T22:00:00Z,28.8332,-90.8320,10.0,-3.673,11144222 
WAVCIS,ioos:station:WAVCIS:CSI15:1,2011-02-01T23:00:00Z,28.8332,-90.8320,10.0,-3.695,11144222 
WAVCIS,ioos:station:WAVCIS:CSI15:1,2011-02-02T00:00:00Z,28.8332,-90.8320,10.0,-3.691,11144222 
WAVCIS,ioos:station:WAVCIS:CSI15:1,2011-02-02T01:00:00Z,28.8332,-90.8320,10.0,-3.69,11144222 
WAVCIS,ioos:station:WAVCIS:CSI15:1,2011-02-02T02:00:00Z,28.8332,-90.8320,10.0,-3.704,11144222 
WAVCIS,ioos:station:WAVCIS:CSI15:1,2011-02-02T03:00:00Z,28.8332,-90.8320,10.0,-3.705,11144222 
WAVCIS,ioos:station:WAVCIS:CSI15:1,2011-02-02T04:00:00Z,28.8332,-90.8320,10.0,-3.714,11144222 
WAVCIS,ioos:station:WAVCIS:CSI15:1,2011-02-02T05:00:00Z,28.8332,-90.8320,10.0,-3.722,11144222 
WAVCIS,ioos:station:WAVCIS:CSI15:1,2011-02-02T06:00:00Z,28.8332,-90.8320,10.0,-3.739,11144222 
WAVCIS,ioos:station:WAVCIS:CSI15:1,2011-02-02T07:00:00Z,28.8332,-90.8320,10.0,-3.738,11144222 
WAVCIS,ioos:station:WAVCIS:CSI15:1,2011-02-02T08:00:00Z,28.8332,-90.8320,10.0,-3.744,11144222 
WAVCIS,ioos:station:WAVCIS:CSI15:1,2011-02-02T09:00:00Z,28.8332,-90.8320,10.0,-3.765,11144222 
WAVCIS,ioos:station:WAVCIS:CSI15:1,2011-02-02T10:00:00Z,28.8332,-90.8320,10.0,-3.778,11144222 
WAVCIS,ioos:station:WAVCIS:CSI15:1,2011-02-02T11:00:00Z,28.8332,-90.8320,10.0,-3.792,11144222 
WAVCIS,ioos:station:WAVCIS:CSI15:1,2011-02-02T12:00:00Z,28.8332,-90.8320,10.0,-3.776,11144222 
WAVCIS,ioos:station:WAVCIS:CSI15:1,2011-02-02T13:00:00Z,28.8332,-90.8320,10.0,-3.801,11144222 
WAVCIS,ioos:station:WAVCIS:CSI15:1,2011-02-02T14:00:00Z,28.8332,-90.8320,10.0,-3.803,11144222 
WAVCIS,ioos:station:WAVCIS:CSI15:1,2011-02-02T15:00:00Z,28.8332,-90.8320,10.0,-3.813,11144222 
WAVCIS,ioos:station:WAVCIS:CSI15:1,2011-02-02T16:00:00Z,28.8332,-90.8320,10.0,-3.821,11144222 
WAVCIS,ioos:station:WAVCIS:CSI15:1,2011-02-02T17:00:00Z,28.8332,-90.8320,10.0,-3.813,11144222 
WAVCIS,ioos:station:WAVCIS:CSI15:1,2011-02-02T18:00:00Z,28.8332,-90.8320,10.0,-3.769,11144222 
WAVCIS,ioos:station:WAVCIS:CSI15:1,2011-02-02T19:00:00Z,28.8332,-90.8320,10.0,-3.762,11144222 
WAVCIS,ioos:station:WAVCIS:CSI15:1,2011-02-02T20:00:00Z,28.8332,-90.8320,10.0,-3.784,11144222 
WAVCIS,ioos:station:WAVCIS:CSI15:1,2011-02-02T21:00:00Z,28.8332,-90.8320,10.0,-3.811,11144222 
WAVCIS,ioos:station:WAVCIS:CSI15:1,2011-02-02T22:00:00Z,28.8332,-90.8320,10.0,-3.814,11144222 
WAVCIS,ioos:station:WAVCIS:CSI15:1,2011-02-02T23:00:00Z,28.8332,-90.8320,10.0,-3.827,11144222 
WAVCIS,ioos:station:WAVCIS:CSI15:1,2011-02-03T00:00:00Z,28.8332,-90.8320,10.0,-3.826,11144222 
WAVCIS,ioos:station:WAVCIS:CSI15:1,2011-02-03T01:00:00Z,28.8332,-90.8320,10.0,-3.848,11144222 
WAVCIS,ioos:station:WAVCIS:CSI15:1,2011-02-03T02:00:00Z,28.8332,-90.8320,10.0,-3.875,11144222 
WAVCIS,ioos:station:WAVCIS:CSI15:1,2011-02-03T03:00:00Z,28.8332,-90.8320,10.0,-3.891,11144222 
WAVCIS,ioos:station:WAVCIS:CSI15:1,2011-02-03T04:00:00Z,28.8332,-90.8320,10.0,-3.902,11144222 
WAVCIS,ioos:station:WAVCIS:CSI15:1,2011-02-03T05:00:00Z,28.8332,-90.8320,10.0,-3.921,11144222 
WAVCIS,ioos:station:WAVCIS:CSI15:1,2011-02-03T06:00:00Z,28.8332,-90.8320,10.0,-3.935,11144222 
WAVCIS,ioos:station:WAVCIS:CSI15:1,2011-02-03T07:00:00Z,28.8332,-90.8320,10.0,-3.954,11144222 
WAVCIS,ioos:station:WAVCIS:CSI15:1,2011-02-03T08:00:00Z,28.8332,-90.8320,10.0,-3.955,11144222 
WAVCIS,ioos:station:WAVCIS:CSI15:1,2011-02-03T09:00:00Z,28.8332,-90.8320,10.0,-3.982,11144222 
WAVCIS,ioos:station:WAVCIS:CSI15:1,2011-02-03T10:00:00Z,28.8332,-90.8320,10.0,-3.992,11144222 
WAVCIS,ioos:station:WAVCIS:CSI15:1,2011-02-03T11:00:00Z,28.8332,-90.8320,10.0,-4.024,11144222 
WAVCIS,ioos:station:WAVCIS:CSI15:1,2011-02-03T12:00:00Z,28.8332,-90.8320,10.0,-4.046,11144222 
WAVCIS,ioos:station:WAVCIS:CSI15:1,2011-02-03T13:00:00Z,28.8332,-90.8320,10.0,-4.059,11144222 
WAVCIS,ioos:station:WAVCIS:CSI15:1,2011-02-03T14:00:00Z,28.8332,-90.8320,10.0,-4.045,11144222 
WAVCIS,ioos:station:WAVCIS:CSI15:1,2011-02-03T15:00:00Z,28.8332,-90.8320,10.0,-4.027,11144222 
WAVCIS,ioos:station:WAVCIS:CSI15:1,2011-02-03T16:00:00Z,28.8332,-90.8320,10.0,-4.039,11144222 
WAVCIS,ioos:station:WAVCIS:CSI15:1,2011-02-03T17:00:00Z,28.8332,-90.8320,10.0,-4.041,11144222 
WAVCIS,ioos:station:WAVCIS:CSI15:1,2011-02-03T18:00:00Z,28.8332,-90.8320,10.0,-4.042,11144222 
WAVCIS,ioos:station:WAVCIS:CSI15:1,2011-02-03T19:00:00Z,28.8332,-90.8320,10.0,-4.034,11144222 
WAVCIS,ioos:station:WAVCIS:CSI15:1,2011-02-03T20:00:00Z,28.8332,-90.8320,10.0,-4.035,11144222 
WAVCIS,ioos:station:WAVCIS:CSI15:1,2011-02-03T21:00:00Z,28.8332,-90.8320,10.0,-4.001,11144222 
WAVCIS,ioos:station:WAVCIS:CSI15:1,2011-02-03T22:00:00Z,28.8332,-90.8320,10.0,-4.012,11144222 
WAVCIS,ioos:station:WAVCIS:CSI15:1,2011-02-03T23:00:00Z,28.8332,-90.8320,10.0,-4.007,11144222 
WAVCIS,ioos:station:WAVCIS:CSI15:1,2011-02-04T00:00:00Z,28.8332,-90.8320,10.0,-4.032,11144222 
WAVCIS,ioos:station:WAVCIS:CSI15:1,2011-02-04T01:00:00Z,28.8332,-90.8320,10.0,-4.02,11144222 
WAVCIS,ioos:station:WAVCIS:CSI15:1,2011-02-04T02:00:00Z,28.8332,-90.8320,10.0,-4.025,11144222 
WAVCIS,ioos:station:WAVCIS:CSI15:1,2011-02-04T03:00:00Z,28.8332,-90.8320,10.0,-4.066,11144222 
WAVCIS,ioos:station:WAVCIS:CSI15:1,2011-02-04T04:00:00Z,28.8332,-90.8320,10.0,-4.083,11144222 
WAVCIS,ioos:station:WAVCIS:CSI15:1,2011-02-04T05:00:00Z,28.8332,-90.8320,10.0,-4.091,11144222 
WAVCIS,ioos:station:WAVCIS:CSI15:1,2011-02-04T06:00:00Z,28.8332,-90.8320,10.0,-4.092,11144222 
WAVCIS,ioos:station:WAVCIS:CSI15:1,2011-02-04T07:00:00Z,28.8332,-90.8320,10.0,-4.107,11144222 
WAVCIS,ioos:station:WAVCIS:CSI15:1,2011-02-04T08:00:00Z,28.8332,-90.8320,10.0,-4.114,11144222 
WAVCIS,ioos:station:WAVCIS:CSI15:1,2011-02-04T09:00:00Z,28.8332,-90.8320,10.0,-4.132,11144222 
WAVCIS,ioos:station:WAVCIS:CSI15:1,2011-02-04T10:00:00Z,28.8332,-90.8320,10.0,-4.138,11144222 
WAVCIS,ioos:station:WAVCIS:CSI15:1,2011-02-04T11:00:00Z,28.8332,-90.8320,10.0,-4.154,11144222 
WAVCIS,ioos:station:WAVCIS:CSI15:1,2011-02-04T12:00:00Z,28.8332,-90.8320,10.0,-4.158,11144222 
WAVCIS,ioos:station:WAVCIS:CSI15:1,2011-02-04T13:00:00Z,28.8332,-90.8320,10.0,-4.179,11144222 
WAVCIS,ioos:station:WAVCIS:CSI15:1,2011-02-04T14:00:00Z,28.8332,-90.8320,10.0,-4.172,11144222 
WAVCIS,ioos:station:WAVCIS:CSI15:1,2011-02-04T15:00:00Z,28.8332,-90.8320,10.0,-4.188,11144222 
WAVCIS,ioos:station:WAVCIS:CSI15:1,2011-02-04T16:00:00Z,28.8332,-90.8320,10.0,-4.185,11144222 
WAVCIS,ioos:station:WAVCIS:CSI15:1,2011-02-04T17:00:00Z,28.8332,-90.8320,10.0,-4.196,11144222 
WAVCIS,ioos:station:WAVCIS:CSI15:1,2011-02-04T18:00:00Z,28.8332,-90.8320,10.0,-4.176,11144222 
WAVCIS,ioos:station:WAVCIS:CSI15:1,2011-02-04T19:00:00Z,28.8332,-90.8320,10.0,-4.187,11144222 
WAVCIS,ioos:station:WAVCIS:CSI15:1,2011-02-04T20:00:00Z,28.8332,-90.8320,10.0,-4.168,11144222 
WAVCIS,ioos:station:WAVCIS:CSI15:1,2011-02-04T21:00:00Z,28.8332,-90.8320,10.0,-4.2,11144222 
WAVCIS,ioos:station:WAVCIS:CSI15:1,2011-02-04T22:00:00Z,28.8332,-90.8320,10.0,-4.186,11144222 
WAVCIS,ioos:station:WAVCIS:CSI15:1,2011-02-04T23:00:00Z,28.8332,-90.8320,10.0,-4.204,11144222 
WAVCIS,ioos:station:WAVCIS:CSI15:1,2011-02-05T00:00:00Z,28.8332,-90.8320,10.0,-4.204,11144222 
WAVCIS,ioos:station:WAVCIS:CSI15:1,2011-02-05T01:00:00Z,28.8332,-90.8320,10.0,-4.216,11144222 
WAVCIS,ioos:station:WAVCIS:CSI15:1,2011-02-05T02:00:00Z,28.8332,-90.8320,10.0,-4.229,11144222 
WAVCIS,ioos:station:WAVCIS:CSI15:1,2011-02-05T03:00:00Z,28.8332,-90.8320,10.0,-4.242,11144222 
WAVCIS,ioos:station:WAVCIS:CSI15:1,2011-02-05T04:00:00Z,28.8332,-90.8320,10.0,-4.254,11144222 
WAVCIS,ioos:station:WAVCIS:CSI15:1,2011-02-05T05:00:00Z,28.8332,-90.8320,10.0,-4.269,11144222 
WAVCIS,ioos:station:WAVCIS:CSI15:1,2011-02-05T06:00:00Z,28.8332,-90.8320,10.0,-4.27,11144222 
WAVCIS,ioos:station:WAVCIS:CSI15:1,2011-02-05T07:00:00Z,28.8332,-90.8320,10.0,-4.283,11144222 
WAVCIS,ioos:station:WAVCIS:CSI15:1,2011-02-05T08:00:00Z,28.8332,-90.8320,10.0,-4.307,11144222 
WAVCIS,ioos:station:WAVCIS:CSI15:1,2011-02-05T09:00:00Z,28.8332,-90.8320,10.0,-4.371,11144222 
WAVCIS,ioos:station:WAVCIS:CSI15:1,2011-02-05T10:00:00Z,28.8332,-90.8320,10.0,-4.396,11144222 
WAVCIS,ioos:station:WAVCIS:CSI15:1,2011-02-05T11:00:00Z,28.8332,-90.8320,10.0,-4.49,11144222 
WAVCIS,ioos:station:WAVCIS:CSI15:1,2011-02-05T12:00:00Z,28.8332,-90.8320,10.0,-4.506,11144222 
WAVCIS,ioos:station:WAVCIS:CSI15:1,2011-02-05T13:00:00Z,28.8332,-90.8320,10.0,-4.561,11144222 
WAVCIS,ioos:station:WAVCIS:CSI15:1,2011-02-05T14:00:00Z,28.8332,-90.8320,10.0,-4.846,11144222 
WAVCIS,ioos:station:WAVCIS:CSI15:1,2011-02-05T15:00:00Z,28.8332,-90.8320,10.0,-4.927,11144222 
WAVCIS,ioos:station:WAVCIS:CSI15:1,2011-02-05T16:00:00Z,28.8332,-90.8320,10.0,-4.93,11144222 
WAVCIS,ioos:station:WAVCIS:CSI15:1,2011-02-05T17:00:00Z,28.8332,-90.8320,10.0,-4.904,11144222 
WAVCIS,ioos:station:WAVCIS:CSI15:1,2011-02-05T18:00:00Z,28.8332,-90.8320,10.0,-4.578,11144222 
WAVCIS,ioos:station:WAVCIS:CSI15:1,2011-02-05T19:00:00Z,28.8332,-90.8320,10.0,-4.489,11144222 
WAVCIS,ioos:station:WAVCIS:CSI15:1,2011-02-05T20:00:00Z,28.8332,-90.8320,10.0,-4.405,11144222 
WAVCIS,ioos:station:WAVCIS:CSI15:1,2011-02-05T21:00:00Z,28.8332,-90.8320,10.0,-4.393,11144222 
WAVCIS,ioos:station:WAVCIS:CSI15:1,2011-02-05T22:00:00Z,28.8332,-90.8320,10.0,-4.317,11144222 
WAVCIS,ioos:station:WAVCIS:CSI15:1,2011-02-05T23:00:00Z,28.8332,-90.8320,10.0,-4.354,11144222 
WAVCIS,ioos:station:WAVCIS:CSI15:1,2011-02-06T00:00:00Z,28.8332,-90.8320,10.0,-4.351,11144222 
WAVCIS,ioos:station:WAVCIS:CSI15:1,2011-02-06T01:00:00Z,28.8332,-90.8320,10.0,-4.348,11144222 
WAVCIS,ioos:station:WAVCIS:CSI15:1,2011-02-06T02:00:00Z,28.8332,-90.8320,10.0,-4.368,11144222 
WAVCIS,ioos:station:WAVCIS:CSI15:1,2011-02-06T03:00:00Z,28.8332,-90.8320,10.0,-4.361,11144222 
WAVCIS,ioos:station:WAVCIS:CSI15:1,2011-02-06T04:00:00Z,28.8332,-90.8320,10.0,-4.374,11144222 
WAVCIS,ioos:station:WAVCIS:CSI15:1,2011-02-06T05:00:00Z,28.8332,-90.8320,10.0,-4.35,11144222 
WAVCIS,ioos:station:WAVCIS:CSI15:1,2011-02-06T06:00:00Z,28.8332,-90.8320,10.0,-4.367,11144222 
WAVCIS,ioos:station:WAVCIS:CSI15:1,2011-02-06T07:00:00Z,28.8332,-90.8320,10.0,-4.379,11144222 
WAVCIS,ioos:station:WAVCIS:CSI15:1,2011-02-06T08:00:00Z,28.8332,-90.8320,10.0,-4.368,11144222 
WAVCIS,ioos:station:WAVCIS:CSI15:1,2011-02-06T09:00:00Z,28.8332,-90.8320,10.0,-4.37,11144222 
WAVCIS,ioos:station:WAVCIS:CSI15:1,2011-02-06T10:00:00Z,28.8332,-90.8320,10.0,-4.378,11144222 
WAVCIS,ioos:station:WAVCIS:CSI15:1,2011-02-06T11:00:00Z,28.8332,-90.8320,10.0,-4.368,11144222 
WAVCIS,ioos:station:WAVCIS:CSI15:1,2011-02-06T12:00:00Z,28.8332,-90.8320,10.0,-4.377,11144222 
WAVCIS,ioos:station:WAVCIS:CSI15:1,2011-02-06T13:00:00Z,28.8332,-90.8320,10.0,-4.399,11144222 
WAVCIS,ioos:station:WAVCIS:CSI15:1,2011-02-06T14:00:00Z,28.8332,-90.8320,10.0,-4.409,11144222 
WAVCIS,ioos:station:WAVCIS:CSI15:1,2011-02-06T15:00:00Z,28.8332,-90.8320,10.0,-4.393,11144222 
WAVCIS,ioos:station:WAVCIS:CSI15:1,2011-02-06T16:00:00Z,28.8332,-90.8320,10.0,-4.395,11144222 
WAVCIS,ioos:station:WAVCIS:CSI15:1,2011-02-06T17:00:00Z,28.8332,-90.8320,10.0,-4.371,11144222 
WAVCIS,ioos:station:WAVCIS:CSI15:1,2011-02-06T18:00:00Z,28.8332,-90.8320,10.0,-4.366,11144222 
WAVCIS,ioos:station:WAVCIS:CSI15:1,2011-02-06T19:00:00Z,28.8332,-90.8320,10.0,-4.325,11144222 
WAVCIS,ioos:station:WAVCIS:CSI15:1,2011-02-06T20:00:00Z,28.8332,-90.8320,10.0,-4.287,11144222 
WAVCIS,ioos:station:WAVCIS:CSI15:1,2011-02-06T21:00:00Z,28.8332,-90.8320,10.0,-4.234,11144222 
WAVCIS,ioos:station:WAVCIS:CSI15:1,2011-02-06T22:00:00Z,28.8332,-90.8320,10.0,-4.214,11144222 
WAVCIS,ioos:station:WAVCIS:CSI15:1,2011-02-06T23:00:00Z,28.8332,-90.8320,10.0,-4.214,11144222 
WAVCIS,ioos:station:WAVCIS:CSI15:1,2011-02-07T00:00:00Z,28.8332,-90.8320,10.0,-4.231,11144222 
WAVCIS,ioos:station:WAVCIS:CSI15:1,2011-02-07T01:00:00Z,28.8332,-90.8320,10.0,-4.299,11144222 
WAVCIS,ioos:station:WAVCIS:CSI15:1,2011-02-07T02:00:00Z,28.8332,-90.8320,10.0,-4.348,11144222 
WAVCIS,ioos:station:WAVCIS:CSI15:1,2011-02-07T03:00:00Z,28.8332,-90.8320,10.0,-4.348,11144222 
WAVCIS,ioos:station:WAVCIS:CSI15:1,2011-02-07T04:00:00Z,28.8332,-90.8320,10.0,-4.352,11144222 
WAVCIS,ioos:station:WAVCIS:CSI15:1,2011-02-07T05:00:00Z,28.8332,-90.8320,10.0,-4.322,11144222 
WAVCIS,ioos:station:WAVCIS:CSI15:1,2011-02-07T06:00:00Z,28.8332,-90.8320,10.0,-4.295,11144222 
WAVCIS,ioos:station:WAVCIS:CSI15:1,2011-02-07T07:00:00Z,28.8332,-90.8320,10.0,-4.283,11144222 
WAVCIS,ioos:station:WAVCIS:CSI15:1,2011-02-07T08:00:00Z,28.8332,-90.8320,10.0,-4.304,11144222 
WAVCIS,ioos:station:WAVCIS:CSI15:1,2011-02-07T09:00:00Z,28.8332,-90.8320,10.0,-4.293,11144222 
WAVCIS,ioos:station:WAVCIS:CSI15:1,2011-02-07T10:00:00Z,28.8332,-90.8320,10.0,-4.287,11144222 
WAVCIS,ioos:station:WAVCIS:CSI15:1,2011-02-07T11:00:00Z,28.8332,-90.8320,10.0,-4.293,11144222 
WAVCIS,ioos:station:WAVCIS:CSI15:1,2011-02-07T12:00:00Z,28.8332,-90.8320,10.0,-4.295,11144222 
WAVCIS,ioos:station:WAVCIS:CSI15:1,2011-02-07T13:00:00Z,28.8332,-90.8320,10.0,-4.29,11144222 
WAVCIS,ioos:station:WAVCIS:CSI15:1,2011-02-07T14:00:00Z,28.8332,-90.8320,10.0,-4.314,11144222 
WAVCIS,ioos:station:WAVCIS:CSI15:1,2011-02-07T15:00:00Z,28.8332,-90.8320,10.0,-4.347,11144222 
WAVCIS,ioos:station:WAVCIS:CSI15:1,2011-02-07T16:00:00Z,28.8332,-90.8320,10.0,-4.336,11144222 
WAVCIS,ioos:station:WAVCIS:CSI15:1,2011-02-07T17:00:00Z,28.8332,-90.8320,10.0,-4.336,11144222 
WAVCIS,ioos:station:WAVCIS:CSI15:1,2011-02-07T18:00:00Z,28.8332,-90.8320,10.0,-4.353,11144222 
WAVCIS,ioos:station:WAVCIS:CSI15:1,2011-02-07T19:00:00Z,28.8332,-90.8320,10.0,-4.372,11144222 
WAVCIS,ioos:station:WAVCIS:CSI15:1,2011-02-07T20:00:00Z,28.8332,-90.8320,10.0,-4.402,11144222 
WAVCIS,ioos:station:WAVCIS:CSI15:1,2011-02-07T21:00:00Z,28.8332,-90.8320,10.0,-4.43,11144222 
WAVCIS,ioos:station:WAVCIS:CSI15:1,2011-02-07T22:00:00Z,28.8332,-90.8320,10.0,-4.409,11144222 
WAVCIS,ioos:station:WAVCIS:CSI15:1,2011-02-07T23:00:00Z,28.8332,-90.8320,10.0,-4.406,11144222 
WAVCIS,ioos:station:WAVCIS:CSI15:1,2011-02-08T00:00:00Z,28.8332,-90.8320,10.0,-4.449,11144222 
WAVCIS,ioos:station:WAVCIS:CSI15:1,2011-02-08T01:00:00Z,28.8332,-90.8320,10.0,-4.509,11144222 
WAVCIS,ioos:station:WAVCIS:CSI15:1,2011-02-08T02:00:00Z,28.8332,-90.8320,10.0,-4.561,11144222 
WAVCIS,ioos:station:WAVCIS:CSI15:1,2011-02-08T03:00:00Z,28.8332,-90.8320,10.0,-4.581,11144222 
WAVCIS,ioos:station:WAVCIS:CSI15:1,2011-02-08T04:00:00Z,28.8332,-90.8320,10.0,-4.622,11144222 
WAVCIS,ioos:station:WAVCIS:CSI15:1,2011-02-08T05:00:00Z,28.8332,-90.8320,10.0,-4.617,11144222 
WAVCIS,ioos:station:WAVCIS:CSI15:1,2011-02-08T06:00:00Z,28.8332,-90.8320,10.0,-4.603,11144222 
WAVCIS,ioos:station:WAVCIS:CSI15:1,2011-02-08T07:00:00Z,28.8332,-90.8320,10.0,-4.602,11144222 
WAVCIS,ioos:station:WAVCIS:CSI15:1,2011-02-08T08:00:00Z,28.8332,-90.8320,10.0,-4.598,11144222 
WAVCIS,ioos:station:WAVCIS:CSI15:1,2011-02-08T09:00:00Z,28.8332,-90.8320,10.0,-4.612,11144222 
WAVCIS,ioos:station:WAVCIS:CSI15:1,2011-02-08T10:00:00Z,28.8332,-90.8320,10.0,-4.632,11144222 
WAVCIS,ioos:station:WAVCIS:CSI15:1,2011-02-08T11:00:00Z,28.8332,-90.8320,10.0,-4.649,11144222 
WAVCIS,ioos:station:WAVCIS:CSI15:1,2011-02-08T12:00:00Z,28.8332,-90.8320,10.0,-4.649,11144222 
WAVCIS,ioos:station:WAVCIS:CSI15:1,2011-02-08T13:00:00Z,28.8332,-90.8320,10.0,-4.656,11144222 
WAVCIS,ioos:station:WAVCIS:CSI15:1,2011-02-08T14:00:00Z,28.8332,-90.8320,10.0,-4.625,11144222 
WAVCIS,ioos:station:WAVCIS:CSI15:1,2011-02-08T15:00:00Z,28.8332,-90.8320,10.0,-4.592,11144222 
WAVCIS,ioos:station:WAVCIS:CSI15:1,2011-02-08T16:00:00Z,28.8332,-90.8320,10.0,-4.566,11144222 
WAVCIS,ioos:station:WAVCIS:CSI15:1,2011-02-08T17:00:00Z,28.8332,-90.8320,10.0,-4.579,11144222 
WAVCIS,ioos:station:WAVCIS:CSI15:1,2011-02-08T18:00:00Z,28.8332,-90.8320,10.0,-4.527,11144222 
WAVCIS,ioos:station:WAVCIS:CSI15:1,2011-02-08T19:00:00Z,28.8332,-90.8320,10.0,-4.525,11144222 
WAVCIS,ioos:station:WAVCIS:CSI15:1,2011-02-08T20:00:00Z,28.8332,-90.8320,10.0,-4.474,11144222 
WAVCIS,ioos:station:WAVCIS:CSI15:1,2011-02-08T21:00:00Z,28.8332,-90.8320,10.0,-4.425,11144222 
WAVCIS,ioos:station:WAVCIS:CSI15:1,2011-02-08T22:00:00Z,28.8332,-90.8320,10.0,-4.413,11144222 
WAVCIS,ioos:station:WAVCIS:CSI15:1,2011-02-08T23:00:00Z,28.8332,-90.8320,10.0,-4.439,11144222 
WAVCIS,ioos:station:WAVCIS:CSI15:1,2011-02-09T00:00:00Z,28.8332,-90.8320,10.0,-4.441,11144222 
WAVCIS,ioos:station:WAVCIS:CSI15:1,2011-02-09T01:00:00Z,28.8332,-90.8320,10.0,-4.459,11144222 
WAVCIS,ioos:station:WAVCIS:CSI15:1,2011-02-09T02:00:00Z,28.8332,-90.8320,10.0,-4.487,11144222 
WAVCIS,ioos:station:WAVCIS:CSI15:1,2011-02-09T03:00:00Z,28.8332,-90.8320,10.0,-4.505,11144222 
WAVCIS,ioos:station:WAVCIS:CSI15:1,2011-02-09T04:00:00Z,28.8332,-90.8320,10.0,-4.524,11144222 
WAVCIS,ioos:station:WAVCIS:CSI15:1,2011-02-09T05:00:00Z,28.8332,-90.8320,10.0,-4.553,11144222 
WAVCIS,ioos:station:WAVCIS:CSI15:1,2011-02-09T06:00:00Z,28.8332,-90.8320,10.0,-4.567,11144222 
WAVCIS,ioos:station:WAVCIS:CSI15:1,2011-02-09T07:00:00Z,28.8332,-90.8320,10.0,-4.603,11144222 
WAVCIS,ioos:station:WAVCIS:CSI15:1,2011-02-09T08:00:00Z,28.8332,-90.8320,10.0,-4.64,11144222 
WAVCIS,ioos:station:WAVCIS:CSI15:1,2011-02-09T09:00:00Z,28.8332,-90.8320,10.0,-4.641,11144222 
WAVCIS,ioos:station:WAVCIS:CSI15:1,2011-02-09T10:00:00Z,28.8332,-90.8320,10.0,-4.637,11144222 
WAVCIS,ioos:station:WAVCIS:CSI15:1,2011-02-09T11:00:00Z,28.8332,-90.8320,10.0,-4.633,11144222 
WAVCIS,ioos:station:WAVCIS:CSI15:1,2011-02-09T12:00:00Z,28.8332,-90.8320,10.0,-4.65,11144222 
WAVCIS,ioos:station:WAVCIS:CSI15:1,2011-02-09T13:00:00Z,28.8332,-90.8320,10.0,-4.666,11144222 
WAVCIS,ioos:station:WAVCIS:CSI15:1,2011-02-09T14:00:00Z,28.8332,-90.8320,10.0,-4.661,11144222 
WAVCIS,ioos:station:WAVCIS:CSI15:1,2011-02-09T15:00:00Z,28.8332,-90.8320,10.0,-4.699,11144222 
WAVCIS,ioos:station:WAVCIS:CSI15:1,2011-02-09T16:00:00Z,28.8332,-90.8320,10.0,-4.723,11144222 
WAVCIS,ioos:station:WAVCIS:CSI15:1,2011-02-09T17:00:00Z,28.8332,-90.8320,10.0,-4.742,11144222 
WAVCIS,ioos:station:WAVCIS:CSI15:1,2011-02-09T18:00:00Z,28.8332,-90.8320,10.0,-4.787,11144222 
WAVCIS,ioos:station:WAVCIS:CSI15:1,2011-02-09T19:00:00Z,28.8332,-90.8320,10.0,-4.828,11144222 
WAVCIS,ioos:station:WAVCIS:CSI15:1,2011-02-09T20:00:00Z,28.8332,-90.8320,10.0,-4.839,11144222 
WAVCIS,ioos:station:WAVCIS:CSI15:1,2011-02-09T21:00:00Z,28.8332,-90.8320,10.0,-4.83,11144222 
WAVCIS,ioos:station:WAVCIS:CSI15:1,2011-02-09T22:00:00Z,28.8332,-90.8320,10.0,-4.794,11144222 
WAVCIS,ioos:station:WAVCIS:CSI15:1,2011-02-09T23:00:00Z,28.8332,-90.8320,10.0,-4.765,11144222 
WAVCIS,ioos:station:WAVCIS:CSI15:1,2011-02-10T00:00:00Z,28.8332,-90.8320,10.0,-4.78,11144222 
WAVCIS,ioos:station:WAVCIS:CSI15:1,2011-02-10T01:00:00Z,28.8332,-90.8320,10.0,-4.828,11144222 
WAVCIS,ioos:station:WAVCIS:CSI15:1,2011-02-10T02:00:00Z,28.8332,-90.8320,10.0,-4.88,11144222 
WAVCIS,ioos:station:WAVCIS:CSI15:1,2011-02-10T03:00:00Z,28.8332,-90.8320,10.0,-4.975,11144222 
WAVCIS,ioos:station:WAVCIS:CSI15:1,2011-02-10T04:00:00Z,28.8332,-90.8320,10.0,-5.02,11144222 
WAVCIS,ioos:station:WAVCIS:CSI15:1,2011-02-10T05:00:00Z,28.8332,-90.8320,10.0,-5.022,11144222 
WAVCIS,ioos:station:WAVCIS:CSI15:1,2011-02-10T06:00:00Z,28.8332,-90.8320,10.0,-4.996,11144222 
WAVCIS,ioos:station:WAVCIS:CSI15:1,2011-02-10T07:00:00Z,28.8332,-90.8320,10.0,-5.023,11144222 
WAVCIS,ioos:station:WAVCIS:CSI15:1,2011-02-10T08:00:00Z,28.8332,-90.8320,10.0,-5.109,11144222 
WAVCIS,ioos:station:WAVCIS:CSI15:1,2011-02-10T09:00:00Z,28.8332,-90.8320,10.0,-5.118,11144222 
WAVCIS,ioos:station:WAVCIS:CSI15:1,2011-02-10T10:00:00Z,28.8332,-90.8320,10.0,-5.159,11144222 
WAVCIS,ioos:station:WAVCIS:CSI15:1,2011-02-10T11:00:00Z,28.8332,-90.8320,10.0,-5.161,11144222 
WAVCIS,ioos:station:WAVCIS:CSI15:1,2011-02-10T12:00:00Z,28.8332,-90.8320,10.0,-5.221,11144222 
WAVCIS,ioos:station:WAVCIS:CSI15:1,2011-02-10T13:00:00Z,28.8332,-90.8320,10.0,-5.219,11144222 
WAVCIS,ioos:station:WAVCIS:CSI15:1,2011-02-10T14:00:00Z,28.8332,-90.8320,10.0,-5.144,11144222 
WAVCIS,ioos:station:WAVCIS:CSI15:1,2011-02-10T15:00:00Z,28.8332,-90.8320,10.0,-5.159,11144222 
WAVCIS,ioos:station:WAVCIS:CSI15:1,2011-02-10T16:00:00Z,28.8332,-90.8320,10.0,-5.059,11144222 
WAVCIS,ioos:station:WAVCIS:CSI15:1,2011-02-10T17:00:00Z,28.8332,-90.8320,10.0,-5.045,11144222 
WAVCIS,ioos:station:WAVCIS:CSI15:1,2011-02-10T18:00:00Z,28.8332,-90.8320,10.0,-5.036,11144222 
WAVCIS,ioos:station:WAVCIS:CSI15:1,2011-02-10T19:00:00Z,28.8332,-90.8320,10.0,-5.005,11144222 
WAVCIS,ioos:station:WAVCIS:CSI15:1,2011-02-10T20:00:00Z,28.8332,-90.8320,10.0,-4.956,11144222 
WAVCIS,ioos:station:WAVCIS:CSI15:1,2011-02-10T21:00:00Z,28.8332,-90.8320,10.0,-4.912,11144222 
WAVCIS,ioos:station:WAVCIS:CSI15:1,2011-02-10T22:00:00Z,28.8332,-90.8320,10.0,-4.899,11144222 
WAVCIS,ioos:station:WAVCIS:CSI15:1,2011-02-10T23:00:00Z,28.8332,-90.8320,10.0,-4.857,11144222 
WAVCIS,ioos:station:WAVCIS:CSI15:1,2011-02-11T00:00:00Z,28.8332,-90.8320,10.0,-4.78,11144222 
WAVCIS,ioos:station:WAVCIS:CSI15:1,2011-02-11T01:00:00Z,28.8332,-90.8320,10.0,-4.754,11144222 
WAVCIS,ioos:station:WAVCIS:CSI15:1,2011-02-11T02:00:00Z,28.8332,-90.8320,10.0,-4.76,11144222 
WAVCIS,ioos:station:WAVCIS:CSI15:1,2011-02-11T03:00:00Z,28.8332,-90.8320,10.0,-4.781,11144222 
WAVCIS,ioos:station:WAVCIS:CSI15:1,2011-02-11T04:00:00Z,28.8332,-90.8320,10.0,-4.794,11144222 
WAVCIS,ioos:station:WAVCIS:CSI15:1,2011-02-11T05:00:00Z,28.8332,-90.8320,10.0,-4.812,11144222 
WAVCIS,ioos:station:WAVCIS:CSI15:1,2011-02-11T06:00:00Z,28.8332,-90.8320,10.0,-4.83,11144222 
WAVCIS,ioos:station:WAVCIS:CSI15:1,2011-02-11T07:00:00Z,28.8332,-90.8320,10.0,-4.839,11144222 
WAVCIS,ioos:station:WAVCIS:CSI15:1,2011-02-11T08:00:00Z,28.8332,-90.8320,10.0,-4.872,11144222 
WAVCIS,ioos:station:WAVCIS:CSI15:1,2011-02-11T09:00:00Z,28.8332,-90.8320,10.0,-4.882,11144222 
WAVCIS,ioos:station:WAVCIS:CSI15:1,2011-02-11T10:00:00Z,28.8332,-90.8320,10.0,-4.916,11144222 
WAVCIS,ioos:station:WAVCIS:CSI15:1,2011-02-11T11:00:00Z,28.8332,-90.8320,10.0,-4.943,11144222 